Location: Syracuse
(43.0480°N, 76.1480°W)
Time: 19:13:41
(UTC-05:00)

Daily predictions for brighter satellites

Satellite Brightness Start Highest point End
(mag) Time Altitude Azimuth Time Altitude Azimuth Time Altitude Azimuth
Cosmos 2061 Rocket 4.4 16:54:59 10° SSW 17:01:15 72° W 17:07:39 10° N
Tsikada Rocket 4.0 16:56:29 10° N 17:02:37 66° E 17:08:45 10° SSE
Cosmos 1814 Rocket 4.2 16:57:23 10° NNW 17:02:39 53° ENE 17:07:52 10° SE
Cosmos 2016 Rocket 4.2 16:58:36 10° S 17:04:56 82° W 17:11:15 10° N
BREEZE-M DEB (TANK) 3.0 17:04:03 10° NW 17:05:43 20° N 17:08:03 10° ENE
BREEZE M DEB (TANK) 4.3 17:04:16 10° WNW 17:07:59 27° SW 17:10:07 10° SSE
SL-27 R/B 3.6 17:08:53 10° N 17:11:32 21° ENE 17:14:11 10° ESE
ERS-2 3.5 17:09:44 10° ESE 17:12:27 20° ENE 17:15:10 10° NNE
USA 234 4.4 17:09:00 10° ENE 17:14:15 25° SE 17:19:28 10° S
Cosmos 540 Rocket 4.4 17:10:11 10° N 17:14:27 25° ENE 17:18:40 10° ESE
MSX 4.3 17:09:23 10° S 17:15:08 68° WSW 17:20:55 10° NNW
Lacrosse 5 3.5 17:11:18 10° WNW 17:15:24 24° NNW 17:19:30 10° NNE
Cosmos 1844 Rocket 3.3 17:11:50 10° SW 17:17:23 58° WNW 17:22:58 10° NNE
Ariane Rocket 3.0 17:13:01 10° SSE 17:18:04 70° ENE 17:23:08 10° N
Cosmos 304 Rocket 3.7 17:15:42 10° NNW 17:20:30 65° ENE 17:25:15 10° SSE
CZ-2C R/B 4.2 17:16:46 10° NNE 17:20:59 39° E 17:25:14 10° SSE
Cosmos 1703 Rocket 4.4 17:18:46 10° SSE 17:22:41 31° E 17:26:36 10° NNE
Cosmos 841 Rocket 3.6 17:18:21 10° NNW 17:23:33 54° ENE 17:28:41 10° SE
COSMOS 2406 4.3 17:20:56 10° NW 17:26:28 51° WSW 17:31:57 10° S
Cosmos 972 Rocket 4.3 17:22:22 10° NNW 17:27:16 69° WSW 17:32:10 10° S
USA 161 3.8 17:28:58 10° NW 17:30:02 13° WNW 17:31:09 10° WSW
Cosmos 1486 Rocket 4.0 17:29:12 10° S 17:34:19 61° ESE 17:39:30 10° NNE
Okean 2 Rocket 4.2 17:31:42 10° NNE 17:35:21 23° ENE 17:38:59 10° SE
FENGYUN 3A 4.4 17:31:46 10° SE 17:36:22 29° ENE 17:40:58 10° N
CSL-04 Debris 4.3 17:31:48 10° SSE 17:37:14 79° WSW 17:42:40 10° NNW
Cosmos 1633 3.2 17:34:12 10° N 17:37:36 34° ENE 17:40:59 10° SE
Meteor 1-14 Rocket 4.2 17:33:13 10° N 17:38:55 80° E 17:44:28 10° SSE
Cosmos 1464 Rocket 4.5 17:33:42 10° SSE 17:39:10 36° E 17:44:42 10° NNE
Cosmos 1437 3.7 17:36:51 10° SSW 17:39:55 47° WNW 17:43:01 10° N
Cosmos 44 4.1 17:36:58 10° NNW 17:41:03 30° NE 17:44:23 15° E
BREEZE-M DEB (TANK) 3.5 17:42:44 10° W 17:44:53 37° NNW 17:46:38 19° NE
Cosmos 1833 Rocket 2.9 17:40:00 10° NNW 17:45:24 46° ENE 17:50:48 10° SE
Cosmos 972 4.3 17:41:15 10° NNW 17:46:18 89° ENE 17:51:10 10° SSE
Cosmos 1908 Rocket 3.4 17:42:39 10° N 17:47:01 78° E 17:51:20 10° SSE
Cosmos 1733 Rocket 4.5 17:44:02 10° NNW 17:48:13 42° W 17:52:24 10° SSW
SKYMED 2 4.0 17:44:24 10° NNE 17:48:32 41° E 17:52:38 10° S
BREEZE-M DEB (TANK) 2.8 17:47:51 10° NW 17:49:46 31° NNE 17:50:24 27° NE
Cosmos 2297 4.1 17:44:35 10° S 17:49:53 41° ESE 17:54:15 15° NE
IRS-1A Rocket 4.3 17:44:50 10° SSE 17:50:39 84° ENE 17:56:24 10° NNW
Cosmos 1354 Rocket 4.3 17:46:38 10° S 17:51:37 44° ESE 17:55:56 14° NE
Cosmos 2233 Rocket 4.2 17:46:45 10° SSW 17:53:00 78° W 17:59:15 10° N
CENTAUR R/B 3.6 17:48:12 10° WSW 17:54:03 42° NW 18:00:43 10° NNE
Cosmos 2278 Rocket 2.3 17:48:47 10° SSW 17:54:27 79° WNW 18:00:10 10° NNE
SPOT 3 Rocket 3.8 17:49:37 10° SE 17:54:36 47° ENE 17:59:36 10° N
ALOS 2.7 17:50:49 10° SE 17:55:08 39° ENE 17:59:28 10° N
Meteor 1-11 Rocket 4.4 17:51:30 10° N 17:56:44 33° ENE 18:01:51 10° SE
BREEZE-M DEB (TANK) 2.2 17:56:14 10° SW 17:58:15 48° SE 17:58:53 37° E
SMAP 4.2 17:59:01 10° S 18:03:28 46° W 18:07:58 10° NNW
COSMOS 2455 3.8 17:57:59 10° SW 18:03:44 47° NW 18:09:32 10° NNE
Sich 1 Rocket 3.6 17:59:24 10° N 18:03:51 84° W 18:08:17 10° S
Meteor 1-28 Rocket 4.0 18:04:26 10° N 18:08:02 50° WNW 18:11:38 10° SSW
CZ-4 R/B 2.4 18:04:52 10° S 18:08:35 46° W 18:12:18 10° NNW
MOS 1 4.2 18:07:51 10° SSE 18:13:34 85° ENE 18:19:18 10° NNW
Cosmos 1441 Rocket 4.0 18:11:15 10° SSE 18:14:11 33° ESE 18:14:11 33° ESE
Cosmos 1606 2.7 18:11:11 10° SSW 18:14:57 77° W 18:18:43 10° N
NOAA 12 4.0 18:09:49 10° SSE 18:15:03 63° ENE 18:20:19 10° N
Okean 1-7 2.9 18:11:10 10° S 18:15:32 81° E 18:19:57 10° N
BREEZE-M R/B 3.1 18:15:23 10° WNW 18:18:09 56° SSW 18:20:54 20° SE
Landsat 4 4.4 18:15:53 10° N 18:19:36 53° WNW 18:23:17 10° SSW
CZ-4C R/B 3.1 18:13:20 10° NNW 18:20:06 47° NE 18:24:01 27° ESE
Cosmos 1513 Rocket 4.4 18:15:24 10° S 18:21:39 69° E 18:27:50 10° NNE
EO 1 Del DPAF 3.2 18:19:24 18° N 18:22:11 84° WNW 18:26:00 10° SSW
Thor Agena Rocket 4.4 18:27:31 30° SE 18:27:31 30° SE 18:30:59 10° SSE
Cosmos 1782 Rocket 4.1 18:27:15 10° NNW 18:31:32 59° W 18:35:48 10° S
Meteor 2-6 Rocket 4.1 18:26:44 10° S 18:32:10 88° W 18:37:48 10° N
CZ-3A R/B 4.0 18:17:50 10° NW 18:32:42 76° SW 18:38:16 11° SE
Cosmos 2082 Rocket 2.3 18:27:52 10° NNW 18:33:35 78° WSW 18:39:13 10° SSE
Cosmos 1891 Rocket 4.3 18:28:38 10° S 18:34:48 84° E 18:40:55 10° N
COSMO-SKYMED 1 3.1 18:32:21 10° N 18:36:38 58° WNW 18:40:54 10° SSW
YAOGAN 1 4.2 18:33:51 10° SSW 18:37:48 35° W 18:41:46 10° NNW
Cosmos 1602 3.6 18:35:23 10° N 18:39:15 86° W 18:43:05 10° S
Cosmos 1782 4.1 18:36:21 10° SSW 18:40:09 40° WNW 18:43:58 10° N
ERS-2 4.2 18:42:44 10° SSW 18:45:57 28° W 18:49:11 10° NW
Cosmos 405 Rocket 2.9 18:44:10 10° SSW 18:47:47 66° W 18:47:47 66° W
Nadezhda 4 Rocket 3.8 18:44:55 10° N 18:51:04 76° E 18:57:10 10° SSE
FengYun 1-2 T 4.1 18:47:43 24° SSE 18:51:07 70° ENE 18:56:40 10° N
Cosmos 44 Rocket 3.3 18:49:18 10° NW 18:54:12 79° WSW 18:55:05 59° SSE
Cosmos 2034 Rocket 4.1 18:49:42 10° S 18:56:05 79° W 19:02:28 10° N
USA 234 3.2 18:55:35 46° NE 18:57:47 89° NW 19:04:20 10° SW
Timation 2 Rocket 4.0 18:51:41 10° NNW 18:58:30 72° ENE 19:00:00 54° SE
Cosmos 968 Rocket 3.5 18:53:58 10° S 18:58:24 63° SSE 18:58:24 63° SSE
Lacrosse 5 3.9 18:56:45 10° NW 18:59:43 16° N 18:59:43 16° N
Meteor 1-27 Rocket 3.9 18:56:00 10° SSW 19:01:54 79° W 19:06:37 17° N
Cosmos 292 Rocket 4.3 18:59:15 10° NNW 19:03:54 56° WSW 19:06:28 25° S
Cosmos 1092 Rocket 3.9 19:01:56 10° N 19:07:23 65° NE 19:07:23 65° NE
Cosmos 44 4.4 19:17:56 10° NW 19:22:20 40° WSW 19:22:54 38° SW
USA 229 DEB 4.5 19:43:29 10° SSW 19:47:41 42° SSW 19:47:41 42° SSW
USA 229 4.5 19:43:35 10° SSW 19:47:43 41° SSW 19:47:43 41° SSW
CZ-4C R/B 3.6 20:01:54 10° NW 20:08:51 48° WSW 20:09:18 47° SW
